Home > Time Zones > World Clock > Weather > China > Wuhan > Past weeks

Flag for China Weather past 2 weeks in Wuhan, Hubei, China

Now
81 °F

Scattered clouds.


Feels Like: 83 °F
Forecast: 72 / 83 °F
Wind: 3 mph from North

Location: Wuhan Airport

Current Time: Jul 8, 2015 at 12:23:24 PM

Latest Report: Jul 8, 2015 at 11:00 AM


Visibility: N/A

Pressure: 29.80 "Hg

Humidity: 62%

Dew point: 66 °F

Location of WuhanLocation

Historic Weather in Wuhan — Graph

°F

Wuhan temperature yesterday

Maximum temperature yesterday: 82 °F (at 4:00 PM)
Minimum temperature yesterday: 68 °F (at 1:00 AM)
Average temperature yesterday: 75 °F

Past Weeks' High & Low Weather Summary

 TemperatureHumidityPressure
High97 °F (Jun 29, 3:00 PM)100% (Jun 29, 12:00 AM)29.80 "Hg (Jun 29, 12:00 AM)
Low68 °F (Jul 7, 1:00 AM)52% (Jul 2, 4:00 PM)29.47 "Hg (Jun 26, 4:00 PM)
Average80 °F81%29.63 "Hg
* Reported Jun 23 10:00 AM — Jul 8 10:00 AM, Wuhan, Weather by CustomWeather, © 2015

Note: Actual official high and low records may vary slightly from our data, if they occured in-between our weather recording intervals... More about our weather records

Advertising

Wuhan weather history for previous 24 hours

 ConditionsComfort  
Time TempWeatherWind HumidityBarometerVisibility
10:00 AM
Wed, Jul 8
79 °FPassing clouds.3 mph70%29.80 "HgN/A
9:00 AM77 °FPassing clouds.6 mph69%29.80 "HgN/A
8:00 AM73 °FClear.8 mph83%29.80 "Hg5 mi
7:00 AM72 °FClear.3 mph83%29.80 "Hg4 mi
6:00 AM70 °FSunny.3 mph88%29.77 "Hg10 mi
5:00 AM70 °FClear.6 mph88%29.77 "Hg10 mi
4:00 AM70 °FClear.6 mph88%29.77 "Hg10 mi
3:00 AM70 °FClear.3 mph94%29.77 "Hg10 mi
2:00 AM72 °FClear.3 mph88%29.77 "Hg10 mi
1:00 AM73 °FClear.1 mph83%29.77 "Hg10 mi
12:00 AM73 °FPassing clouds.3 mph83%29.77 "HgN/A
11:00 PM
Tue, Jul 7
73 °FClear.3 mph83%29.80 "Hg10 mi
10:00 PM75 °FClear.6 mph74%29.77 "Hg10 mi
9:00 PM77 °FPassing clouds.6 mph69%29.77 "HgN/A
8:00 PM79 °FPassing clouds.3 mph65%29.77 "HgN/A
7:00 PM81 °FBroken clouds.1 mph66%29.74 "HgN/A
6:00 PM82 °FScattered clouds.6 mph58%29.74 "HgN/A
5:00 PM82 °FPartly sunny.6 mph55%29.74 "HgN/A
4:00 PM82 °FScattered clouds.6 mph55%29.74 "HgN/A
3:00 PM81 °FScattered clouds.3 mph62%29.74 "HgN/A
2:00 PM81 °FScattered clouds.8 mph58%29.77 "HgN/A
1:00 PM79 °FScattered clouds.6 mph61%29.77 "HgN/A
12:00 PM79 °FScattered clouds.3 mph61%29.80 "HgN/A
Weather by CustomWeather, © 2015

See weather overviewHow to use our weather pages